Meteopurmerend
purmerend
Purmerend - Baaienwijk



My webcam  My webcam


Onweer radar Meer informatie blitzortung!


Regen radar Meer informatie rain snow radar


Bezoek onze andere website:

CandyAppleRed WebdesignWebdesign Purmerend Candy Apple Red

MeteopurmerendBlog

Template documentation
and downloads



Het weer levert geen direct gevaar op.    Er zijn geen waarschuwingen afgegeven.

15 daagse weersverwachting Molde (NO)

  • Overzicht
  • Per uur
  • 15 dagen
  • Extra
  • Vergelijk
  • Kaarten
  • Dagkaart
  • Meer »
  • Info
  • Statistieken
  • Directe link
    Temp 6h Neerslag Wind  
 04:03     22:56    Daglengte: 18:53 Vandaag
08:00
10°
 
1
14:00
10°
0.9 mm
8
20:00
 
4
 04:01     22:59    Daglengte: 18:58 Morgen
02:00
 
1
08:00
 
2
14:00
3.6 mm
5
20:00
4.3 mm
6
 03:59     23:01    Daglengte: 19:02 Zaterdag 28 Mei
02:00
22.8 mm
5
08:00
30.6 mm
6
14:00
35.8 mm
7
20:00
36.7 mm
6
 03:57     23:04    Daglengte: 19:07 Zondag 29 Mei
02:00
51.9 mm
5
Locatie info
Region: Møre og Romsdal
Latitude: 62.7375°N
Longitude: 7.1591°E
3 masl
Temp/Neerslag /Baro Onweer/Dauwpunt
    Temp Baro 1h Neerslag Dauwpunt Wind UV Bewolking  
 04:03     22:56    Daglengte: 18:53 Vandaag
08:00
10°
997.4 hPa   8.0°
1
Windvlaag: 0.1 m/s
60%
09:00
11°
997.7 hPa   7.4°
1
Windvlaag: 0.6 m/s
64%
10:00
11°
998.4 hPa
11%
6.9°
3
Windvlaag: 1.6 m/s
80%
11:00
11°
999.1 hPa 0.2 mm
30%
6.4°
2
Windvlaag: 1.5 m/s
84%
12:00
10°
Voelt als: 7.4°
1000.0 hPa 0.3 mm
45%
6.9°
5
Windvlaag: 0 m/s
85%
13:00
10°
Voelt als: 6.8°
1000.7 hPa 0.4 mm
82%
7.6°
7
Windvlaag: 4.2 m/s
85%
14:00
10°
Voelt als: 6.6°
1001.4 hPa
77%
7.3°
8
Windvlaag: 4.7 m/s
80%
15:00
10°
Voelt als: 6.5°
1002.0 hPa
76%
6.3°
8
Windvlaag: 4.8 m/s
52%
16:00
10°
1002.5 hPa
71%
4.7°
8
Windvlaag: 3.4 m/s
48%
17:00
10°
1002.8 hPa
68%
4.0°
7
Windvlaag: 2.8 m/s
23%
18:00
10°
1002.8 hPa
71%
4.1°
6
Windvlaag: 3.4 m/s
8%
19:00
10°
Voelt als: 7.4°
1002.7 hPa
71%
4.3°
6
Windvlaag: 2.7 m/s
29%
20:00
Voelt als: 7.1°
1002.7 hPa
74%
4.4°
4
Windvlaag: 3.2 m/s
39%
21:00
Voelt als: 7.3°
1002.9 hPa
73%
5.0°
4
Windvlaag: 2.8 m/s
42%
22:00
Voelt als: 8.1°
1003.1 hPa
74%
6.0°
2
Windvlaag: 2.5 m/s
27%
23:00
Voelt als: 8.2°
1003.0 hPa
74%
6.7°
1
Windvlaag: 1.5 m/s
7%
 04:01     22:59    Daglengte: 18:58 Morgen
00:00
Voelt als: 7.1°
1003.1 hPa
70%
6.6°
2
Windvlaag: 1.9 m/s
9%
01:00
Voelt als: 6.9°
1003.1 hPa
29%
6.3°
2
Windvlaag: 1.5 m/s
10%
02:00
Voelt als: 6.7°
1002.9 hPa
64%
5.9°
1
Windvlaag: 1.4 m/s
20%
03:00
Voelt als: 6.4°
1002.7 hPa
29%
5.7°
1
Windvlaag: 1 m/s
42%
04:00
Voelt als: 6.0°
1002.8 hPa
29%
5.6°
1
Windvlaag: 0.9 m/s
71%
05:00
Voelt als: 6.5°
1002.9 hPa
29%
5.8°
1
Windvlaag: 0.9 m/s
74%
06:00
Voelt als: 6.8°
1003.0 hPa
26%
5.9°
1
Windvlaag: 0.2 m/s
60%
07:00
Voelt als: 7.5°
1003.2 hPa
31%
6.3°
1
Windvlaag: -0.2 m/s
73%
08:00
Voelt als: 7.5°
1003.4 hPa
37%
6.4°
2
Windvlaag: -0.3 m/s
65%
09:00
Voelt als: 7.5°
1003.7 hPa
73%
6.0°
2
Windvlaag: -0.2 m/s
66%
10:00
Voelt als: 7.2°
1004.1 hPa 1.8 mm
76%
5.5°
3
Windvlaag: 2.5 m/s
78%
11:00
Voelt als: 6.9°
1004.6 hPa 1.8 mm
79%
4.5°
4
Windvlaag: 0.1 m/s
73%
12:00
Voelt als: 6.5°
1005.1 hPa
77%
4.3°
5
Windvlaag: 0.8 m/s
59%
13:00
Voelt als: 6.4°
1005.5 hPa
76%
4.0°
5
Windvlaag: 0.9 m/s
56%
14:00
Voelt als: 6.8°
1005.9 hPa
39%
4.0°
5
Windvlaag: -0.8 m/s
61%
15:00
Voelt als: 6.6°
1006.5 hPa
36%
4.0°
6
Windvlaag: -0.9 m/s
44%
16:00
Voelt als: 6.3°
1007.0 hPa
62%
4.4°
6
Windvlaag: 0 m/s
62%
17:00
Voelt als: 6.2°
1007.3 hPa
26%
5.0°
6
Windvlaag: 1.6 m/s
56%
18:00
Voelt als: 5.8°
1007.5 hPa
31%
5.3°
6
Windvlaag: 1.6 m/s
84%
19:00
Voelt als: 5.1°
1007.8 hPa 2.3 mm
77%
5.9°
6
Windvlaag: 2.7 m/s
86%
20:00
Voelt als: 5.0°
1008.1 hPa 2.0 mm
79%
6.3°
6
Windvlaag: 2.3 m/s
82%
21:00
Voelt als: 5.1°
1008.3 hPa
45%
5.8°
6
Windvlaag: 2.2 m/s
77%
22:00
Voelt als: 4.9°
1008.4 hPa 3.1 mm
82%
6.0°
6
Windvlaag: 3.5 m/s
83%
23:00
Voelt als: 4.8°
1008.6 hPa 4.0 mm
82%
6.9°
6
Windvlaag: 2.9 m/s
86%
 03:59     23:01    Daglengte: 19:02 Zaterdag 28 Mei
00:00
Voelt als: 5.2°
1008.7 hPa 5.3 mm
82%
7.4°
6
Windvlaag: 2.1 m/s
86%
01:00
Voelt als: 5.5°
1008.9 hPa 5.2 mm
82%
7.7°
5
Windvlaag: -2.3 m/s
86%
02:00
Voelt als: 5.7°
1009.1 hPa 5.3 mm
82%
7.8°
5
Windvlaag: -2.7 m/s
86%
03:00
Voelt als: 5.6°
1009.4 hPa 5.2 mm
82%
7.7°
5
Windvlaag: -2.9 m/s
82%
04:00
Voelt als: 5.4°
1009.8 hPa 5.0 mm
82%
7.6°
5
Windvlaag: -3.1 m/s
84%
05:00
Voelt als: 4.5°
1010.8 hPa 4.6 mm
100%
6.9°
6
Windvlaag: -2.7 m/s
100%
06:00
Voelt als: 4.3°
1011.2 hPa 5.1 mm
100%
6.8°
6
Windvlaag: -2.8 m/s
100%
07:00
Voelt als: 4.3°
1011.5 hPa 5.5 mm
100%
6.8°
5
Windvlaag: -2.3 m/s
99%
08:00
Voelt als: 4.4°
1012.1 hPa 5.3 mm
100%
6.7°
6
Windvlaag: -2.5 m/s
99%
09:00
Voelt als: 4.5°
1012.7 hPa 5.4 mm
100%
6.9°
6
Windvlaag: -2.1 m/s
99%
10:00
Voelt als: 4.0°
1013.3 hPa 5.9 mm
100%
6.9°
7
Windvlaag: -3 m/s
99%
11:00
Voelt als: 4.1°
1013.8 hPa 6.0 mm
100%
6.4°
6
Windvlaag: -3.7 m/s
96%
12:00
Voelt als: 4.1°
1014.0 hPa 6.1 mm
100%
6.1°
6
Windvlaag: -2.8 m/s
96%
13:00
Voelt als: 3.9°
1014.3 hPa 6.1 mm
100%
6.0°
7
Windvlaag: -2.8 m/s
99%
14:00
Voelt als: 3.7°
1014.6 hPa 6.3 mm
100%
5.7°
7
Windvlaag: 0.1 m/s
100%
15:00
Voelt als: 3.7°
1014.9 hPa 6.4 mm
100%
5.7°
6
Windvlaag: 1.2 m/s
100%
16:00
Voelt als: 3.9°
1014.9 hPa 6.4 mm
100%
5.7°
6
Windvlaag: 1.1 m/s
100%
17:00
Voelt als: 3.8°
1014.9 hPa 6.3 mm
100%
6.1°
7
Windvlaag: 1.8 m/s
100%
18:00
Voelt als: 3.8°
1015.0 hPa 5.8 mm
100%
6.0°
7
Windvlaag: 1.8 m/s
99%
19:00
Voelt als: 3.9°
1014.9 hPa 5.8 mm
100%
5.8°
6
Windvlaag: 1.7 m/s
99%
20:00
Voelt als: 3.9°
1014.7 hPa 6.0 mm
100%
5.8°
6
Windvlaag: 0.8 m/s
97%
21:00
Voelt als: 3.8°
1014.6 hPa 5.9 mm
100%
5.8°
6
Windvlaag: 0.3 m/s
98%
22:00
Voelt als: 3.9°
1014.4 hPa 6.0 mm
100%
5.6°
5
Windvlaag: 0.6 m/s
98%
23:00
Voelt als: 3.6°
1014.4 hPa 6.4 mm
100%
5.1°
6
Windvlaag: 1.3 m/s
100%
 03:57     23:04    Daglengte: 19:07 Zondag 29 Mei
00:00
Voelt als: 3.3°
1013.3 hPa 10.9 mm
100%
4.7°
5
Windvlaag: 9.2 m/s
100%
01:00
Voelt als: 3.4°
1012.9 hPa 11.2 mm
100%
5.0°
5
Windvlaag: 9.3 m/s
100%
02:00
Voelt als: 3.2°
1012.6 hPa 11.6 mm
100%
5.3°
5
Windvlaag: 9.9 m/s
100%
03:00
Voelt als: 3.2°
1012.4 hPa 11.3 mm
100%
5.6°
5
Windvlaag: 9 m/s
99%
04:00
Voelt als: 3.2°
1012.1 hPa 11.8 mm
100%
5.5°
5
Windvlaag: 7.3 m/s
100%
05:00
Voelt als: 3.3°
1011.7 hPa 12.5 mm
100%
5.7°
5
Windvlaag: 7.9 m/s
100%
06:00
Voelt als: 3.9°
1011.4 hPa 12.8 mm
100%
5.7°
4
Windvlaag: 6.4 m/s
100%
07:00
Voelt als: 4.0°
1011.2 hPa 12.7 mm
100%
5.6°
4
Windvlaag: 7.3 m/s
91%
Temp/Neerslag /Baro Onweer/Dauwpunt
    Temp Baro Neerslag Dauwpunt Wind Bewolking  
 04:03     22:56    Daglengte: 18:53 Vandaag
08:00
10°
997.4 hPa   8.0°
1
60%
11:00
11°
999.1 hPa 0.2 mm 6.4°
2
84%
14:00
10°
Voelt als: 6.6°
1001.4 hPa 0.7 mm 7.3°
8
80%
17:00
10°
1002.8 hPa   4.0°
7
23%
20:00
Voelt als: 7.1°
1002.7 hPa   4.4°
4
39%
23:00
Voelt als: 8.2°
1003.0 hPa   6.7°
1
7%
 04:01     22:59    Daglengte: 18:58 Morgen
02:00
Voelt als: 6.7°
1002.9 hPa   5.9°
1
20%
05:00
Voelt als: 6.5°
1002.9 hPa   5.8°
1
74%
08:00
Voelt als: 7.5°
1003.4 hPa   6.4°
2
65%
11:00
Voelt als: 6.9°
1004.6 hPa 3.6 mm 4.5°
4
73%
14:00
Voelt als: 6.8°
1005.9 hPa   4.0°
5
61%
17:00
Voelt als: 6.2°
1007.3 hPa   5.0°
6
56%
20:00
Voelt als: 5.0°
1008.1 hPa 4.3 mm 6.3°
6
82%
23:00
Voelt als: 4.8°
1008.6 hPa 7.1 mm 6.9°
6
86%
 03:59     23:01    Daglengte: 19:02 Zaterdag 28 Mei
02:00
Voelt als: 5.7°
1009.1 hPa 15.7 mm 7.8°
5
86%
05:00
Voelt als: 4.5°
1010.8 hPa 14.7 mm 6.9°
6
100%
08:00
Voelt als: 4.4°
1012.1 hPa 15.9 mm 6.7°
6
99%
11:00
Voelt als: 4.1°
1013.8 hPa 17.3 mm 6.4°
6
96%
14:00
Voelt als: 3.7°
1014.6 hPa 18.5 mm 5.7°
7
100%
17:00
Voelt als: 3.8°
1014.9 hPa 19.1 mm 6.1°
7
100%
20:00
Voelt als: 3.9°
1014.7 hPa 17.6 mm 5.8°
6
97%
23:00
Voelt als: 3.6°
1014.4 hPa 18.3 mm 5.1°
6
100%
 03:57     23:04    Daglengte: 19:07 Zondag 29 Mei
02:00
Voelt als: 3.2°
1012.6 hPa 33.6 mm 5.3°
5
100%
05:00
Voelt als: 3.3°
1011.7 hPa 35.6 mm 5.7°
5
100%
08:00
Voelt als: 4.2°
1011.1 hPa 38.6 mm 5.9°
4
100%
11:00
Voelt als: 5.5°
1012.2 hPa 55.9 mm 5.0°
2
1%
14:00
Voelt als: 5.4°
1012.3 hPa 56.0 mm 5.3°
3
1%
17:00
11°
1011.8 hPa 56.0 mm 4.6°
3
0%
20:00
11°
1011.6 hPa 56.0 mm 5.6°
4
0%
23:00
Voelt als: 6.4°
1012.5 hPa 56.0 mm 6.1°
3
0%
 03:55     23:06    Daglengte: 19:11 Maandag 30 Mei
02:00
Voelt als: 6.1°
1012.3 hPa 56.0 mm 5.0°
2
0%
05:00
Voelt als: 6.4°
1012.3 hPa 56.0 mm 3.7°
2
0%
08:00
10°
Voelt als: 9.6°
1012.1 hPa 56.0 mm 3.8°
1
1%
11:00
12°
1011.4 hPa 56.0 mm 4.0°
1
1%
14:00
13°
1010.6 hPa 56.0 mm 5.6°
2
1%
17:00
12°
1010.1 hPa 56.1 mm 7.7°
3
1%
20:00
11°
1009.7 hPa 56.2 mm 8.2°
2
1%
23:00
10°
Voelt als: 9.6°
1009.2 hPa 56.2 mm 8.7°
1
1%
 03:53     23:09    Daglengte: 19:16 Dinsdag 31 Mei
02:00
1009.1 hPa 56.4 mm 8.6°
1
1%
05:00
1008.8 hPa 56.7 mm 8.5°
1
1%
08:00
Voelt als: 8.7°
1009.4 hPa 57.2 mm 8.5°
2
1%
11:00
Voelt als: 8.4°
1010.3 hPa 57.9 mm 8.3°
2
1%
14:00
Voelt als: 8.4°
1011.4 hPa 58.2 mm 8.3°
2
1%
17:00
10°
Voelt als: 8.7°
1011.9 hPa 58.4 mm 8.4°
2
1%
20:00
10°
Voelt als: 9.1°
1012.6 hPa 58.4 mm 8.4°
2
1%
23:00
Voelt als: 8.8°
1013.3 hPa 58.5 mm 8.3°
2
1%
 03:51     23:11    Daglengte: 19:20 Woensdag 01 Jun
02:00
Voelt als: 7.7°
1013.0 hPa 58.5 mm 7.7°
2
1%
05:00
Voelt als: 8.1°
1013.2 hPa 58.5 mm 7.4°
1
1%
08:00
11°
1013.9 hPa 58.5 mm 8.1°
0
1%
11:00
12°
1014.6 hPa 58.5 mm 8.3°
2
1%
14:00
11°
1016.0 hPa 58.6 mm 8.2°
2
1%
17:00
11°
1017.4 hPa 58.6 mm 8.3°
2
1%
20:00
11°
1018.0 hPa 58.6 mm 8.1°
1
1%
23:00
11°
1018.9 hPa 58.6 mm 8.3°
0
1%
 03:49     23:13    Daglengte: 19:24 Donderdag 02 Jun
02:00
10°
1019.2 hPa 58.6 mm 8.2°
1
1%
05:00
10°
1019.4 hPa   8.0°
1
1%
08:00
12°
1019.9 hPa 117.2 mm 7.4°
1
1%
14:00
14°
1020.4 hPa 117.2 mm 6.9°
3
1%
20:00
13°
1020.6 hPa 117.2 mm 7.1°
3
1%
 03:47     23:15    Daglengte: 19:28 Vrijdag 03 Jun
02:00
10°
Voelt als: 9.2°
1021.2 hPa 117.2 mm 6.7°
2
1%
08:00
11°
1021.1 hPa 117.2 mm 7.2°
2
1%
14:00
14°
1020.8 hPa 117.2 mm 8.2°
3
1%
20:00
14°
1020.5 hPa 117.2 mm 9.6°
3
1%
 03:45     23:17    Daglengte: 19:32 Zaterdag 04 Jun
02:00
11°
1021.7 hPa 117.2 mm 9.1°
2
1%
08:00
14°
1022.6 hPa 117.2 mm 9.1°
1
0%
14:00
17°
1022.5 hPa 117.2 mm 8.9°
2
0%
20:00
16°
1022.2 hPa 117.2 mm 10.2°
1
0%
 03:44     23:19    Daglengte: 19:35 Zondag 05 Jun
02:00
10°
1017.9 hPa 0.4 mm 7.4°
1
75%
08:00
11°
1017.0 hPa 0.3 mm 7.0°
1
73%
14:00
13°
1016.7 hPa 0.2 mm 7.3°
3
63%
20:00
12°
1016.6 hPa 0.4 mm 7.8°
2
64%
 03:42     23:21    Daglengte: 19:39 Maandag 06 Jun
02:00
10°
1016.9 hPa 0.4 mm 7.5°
1
70%
08:00
11°
1016.0 hPa 0.5 mm 7.5°
1
68%
14:00
13°
1015.6 hPa 0.8 mm 8.0°
3
71%
20:00
12°
1015.4 hPa 0.6 mm 8.0°
2
67%
 03:41     23:23    Daglengte: 19:42 Dinsdag 07 Jun
02:00
10°
1015.4 hPa 0.5 mm 7.7°
1
72%
08:00
11°
1014.1 hPa 0.3 mm 7.4°
2
72%
14:00
13°
1012.9 hPa 0.3 mm 8.2°
3
75%
20:00
12°
1012.6 hPa 1.1 mm 8.0°
3
69%
 03:40     23:25    Daglengte: 19:45 Woensdag 08 Jun
02:00
10°
1012.6 hPa 0.7 mm 7.7°
2
74%
08:00
11°
1012.1 hPa 0.6 mm 7.4°
2
74%
14:00
13°
1011.9 hPa 0.8 mm 7.9°
3
66%
20:00
12°
1011.6 hPa 0.9 mm 8.2°
2
58%
 03:38     23:27    Daglengte: 19:49 Donderdag 09 Jun
02:00
10°
1011.4 hPa 0.8 mm 7.7°
1
63%
08:00
11°
1010.7 hPa 1.0 mm 7.7°
1
71%
14:00
13°
1010.4 hPa 0.7 mm 8.3°
2
71%
20:00
13°
1010.4 hPa 0.3 mm 8.6°
2
69%
 03:37     23:28    Daglengte: 19:51 Vrijdag 10 Jun
02:00
11°
1010.6 hPa 1.1 mm 8.4°
1
71%
  CAPE Lifted Index Hail Supercell Tornado SRH 3km CL BTM PRES CL TOP PRES Swiss DWD icon SMHI TS
 04:03     22:56    Daglengte: 18:53 Vandaag
08:00 0 J/kg 1.6 K 0 % 0 % 0 % 0 m²/s² 0 0 2.65 3
09:00 0 J/kg 1.5 K 0 % 0 % 0 % 0 m²/s² 0 0 2.52 3
10:00 4 J/kg 1.2 K 0 % 0 % 0 % 0 m²/s² 0 0 2.22 3
11:00 7 J/kg 1.0 K 0 % 0 % 0 % 0 m²/s² 0 0 1.84 61
12:00 7 J/kg 1.0 K 0 % 0 % 0 % 0 m²/s² 0 0 1.75 80
13:00 8 J/kg 1.0 K 0 % 0 % 0 % 0 m²/s² 0 0 1.39 80
14:00 37 J/kg 1.2 K 0 % 0 % 0 % 0 m²/s² 0 0 1.59 3
15:00 25 J/kg 3.0 K 0 % 0 % 0 % 0 m²/s² 0 0 3.48 2
16:00 85 J/kg 2.8 K 0 % 0 % 0 % 0 m²/s² 0 0 3.16 3
17:00 81 J/kg 3.1 K 0 % 0 % 0 % 0 m²/s² 0 0 3.46 2
18:00 89 J/kg 3.0 K 0 % 0 % 0 % 0 m²/s² 0 0 3.48 2
19:00 117 J/kg 2.8 K 0 % 0 % 0 % 0 m²/s² 0 0 4.63 2
20:00 138 J/kg 2.6 K 0 % 0 % 0 % 0 m²/s² 0 0 5.69 80
21:00 135 J/kg 2.5 K 0 % 0 % 0 % 0 m²/s² 0 0 5.83 80
22:00 149 J/kg 2.1 K 0 % 0 % 0 % 0 m²/s² 0 0 5.79 80
23:00 137 J/kg 2.3 K 0 % 0 % 0 % 0 m²/s² 0 0 6.29 80
 04:01     22:59    Daglengte: 18:58 Morgen
00:00 144 J/kg 2.5 K 0 % 0 % 0 % 0 m²/s² 0 0 6.58 2
01:00 153 J/kg 2.7 K 0 % 0 % 0 % 0 m²/s² 0 0 6.75 1
02:00 116 J/kg 2.8 K 0 % 0 % 0 % 0 m²/s² 0 0 6.88 2
03:00 124 J/kg 2.6 K 0 % 0 % 0 % 0 m²/s² 0 0 6.17 3
04:00 127 J/kg 2.6 K 0 % 0 % 0 % 0 m²/s² 0 0 5.57 3
05:00 128 J/kg 2.6 K 0 % 0 % 0 % 0 m²/s² 0 0 4.79 3
06:00 128 J/kg 2.8 K 0 % 0 % 0 % 0 m²/s² 0 0 4.39 3
07:00 114 J/kg 3.0 K 0 % 0 % 0 % 0 m²/s² 0 0 4.38 3
08:00 107 J/kg 3.0 K 0 % 0 % 0 % 0 m²/s² 0 0 3.81 3
09:00 105 J/kg 3.1 K 0 % 0 % 0 % 0 m²/s² 0 0 3.55 3
10:00 85 J/kg 3.5 K 0 % 0 % 0 % 0 m²/s² 0 0 3.89 3
11:00 50 J/kg 4.1 K 0 % 0 % 0 % 0 m²/s² 0 0 4.55 3
12:00 29 J/kg 4.1 K 0 % 0 % 0 % 0 m²/s² 0 0 4.58 3
13:00 21 J/kg 4.1 K 0 % 0 % 0 % 0 m²/s² 0 0 4.61 3
14:00 61 J/kg 3.4 K 0 % 0 % 0 % 0 m²/s² 0 0 4 2
15:00 30 J/kg 4.7 K 0 % 0 % 0 % 0 m²/s² 0 0 5.36 2
16:00 25 J/kg 5.4 K 0 % 0 % 0 % 0 m²/s² 0 0 5.88 3
17:00 25 J/kg 6.1 K 0 % 0 % 0 % 0 m²/s² 0 0 6.88 3
18:00 22 J/kg 6.3 K 0 % 0 % 0 % 0 m²/s² 0 0 6.75 3
19:00 9 J/kg 6.0 K 0 % 0 % 0 % 0 m²/s² 0 0 6.36 61
20:00 12 J/kg 4.4 K 0 % 0 % 0 % 0 m²/s² 0 0 4.85 61
21:00 12 J/kg 3.6 K 0 % 0 % 0 % 0 m²/s² 0 0 3.96 3
22:00 10 J/kg 2.8 K 0 % 0 % 0 % 0 m²/s² 0 0 3.16 61
23:00 12 J/kg 2.8 K 0 % 0 % 0 % 0 m²/s² 0 0 3.13 61
 03:59     23:01    Daglengte: 19:02 Zaterdag 28 Mei
00:00 10 J/kg 2.6 K 0 % 0 % 0 % 0 m²/s² 0 0 2.87 63
01:00 11 J/kg 3.5 K 0 % 0 % 0 % 0 m²/s² 0 0 4.19 63
02:00 9 J/kg 4.0 K 0 % 0 % 0 % 0 m²/s² 0 0 4.57 63
03:00 9 J/kg 4.4 K 0 % 0 % 0 % 0 m²/s² 0 0 4.76 63
04:00 12 J/kg 4.6 K 0 % 0 % 0 % 0 m²/s² 0 0 5.05 61
05:00 12 J/kg 5.2 K 0 % 0 % 0 % 0 m²/s² 0 0 5.56 61
06:00 13 J/kg 6.2 K 0 % 0 % 0 % 0 m²/s² 0 0 6.59 61
07:00 16 J/kg 7.0 K 0 % 0 % 0 % 0 m²/s² 0 0 8.11 63
08:00 16 J/kg 7.2 K 0 % 0 % 0 % 0 m²/s² 0 0 8.46 63
09:00 15 J/kg 6.9 K 0 % 0 % 0 % 0 m²/s² 0 0 8.1 61
10:00 16 J/kg 6.2 K 0 % 0 % 0 % 0 m²/s² 0 0 7.61 61
11:00 17 J/kg 6.3 K 0 % 0 % 0 % 0 m²/s² 0 0 8.1 61
12:00 18 J/kg 7.3 K 0 % 0 % 0 % 0 m²/s² 0 0 9.28 61
13:00 21 J/kg 9.5 K 0 % 0 % 0 % 0 m²/s² 0 0 11.69 61
14:00 20 J/kg 9.8 K 0 % 0 % 0 % 0 m²/s² 0 0 12.62 63
15:00 27 J/kg 9.9 K 0 % 0 % 0 % 0 m²/s² 0 0 13.11 63
16:00 27 J/kg 9.5 K 0 % 0 % 0 % 0 m²/s² 0 0 12.56 63
17:00 30 J/kg 9.3 K 0 % 0 % 0 % 0 m²/s² 0 0 12.09 61
18:00 32 J/kg 9.4 K 0 % 0 % 0 % 0 m²/s² 0 0 12.13 61
19:00 32 J/kg 9.4 K 0 % 0 % 0 % 0 m²/s² 0 0 12.13 61
20:00 31 J/kg 9.7 K 0 % 0 % 0 % 0 m²/s² 0 0 12.58 61
21:00 32 J/kg 9.8 K 0 % 0 % 0 % 0 m²/s² 0 0 12.77 61
22:00 26 J/kg 9.9 K 0 % 0 % 0 % 0 m²/s² 0 0 12.93 61
23:00 15 J/kg 10.4 K 0 % 0 % 0 % 0 m²/s² 0 0 13.37 61
 03:57     23:04    Daglengte: 19:07 Zondag 29 Mei
00:00 10 J/kg 10.5 K 0 % 0 % 0 % 0 m²/s² 0 0 13.14 61
01:00 10 J/kg 9.8 K 0 % 0 % 0 % 0 m²/s² 0 0 11.84 61
02:00 21 J/kg 8.9 K 0 % 0 % 0 % 0 m²/s² 0 0 10.1 63
03:00 39 J/kg 7.8 K 0 % 0 % 0 % 0 m²/s² 0 0 8.28 61
04:00 42 J/kg 7.5 K 0 % 0 % 0 % 0 m²/s² 0 0 7.92 61
05:00 33 J/kg 7.1 K 0 % 0 % 0 % 0 m²/s² 0 0 7.58 61
06:00 38 J/kg 6.3 K 0 % 0 % 0 % 0 m²/s² 0 0 6.72 61
07:00 19 J/kg 6.1 K 0 % 0 % 0 % 0 m²/s² 0 0 6.58 61
Temp Baro Wind Neerslag
  EWN Forecast EWN WRFDA DWD ICON FMI HIRLAM MET Norway GFS
 04:03     22:56    Daglengte: 18:53 Vandaag
08:00 10.2° 997.4 hPa 1.2 m/s 0.0 mm 11.0° 994.3 hPa 2.9 m/s 0.0 mm 10.4° 997.9 hPa 1.2 m/s -2.0 mm 10.1° 996.7 hPa 0.4 m/s 0.0 mm 10.6° 996.6 hPa 0.6 m/s
11:00 10.9° 999.1 hPa 2.4 m/s 0.2 mm 12.8° 995.2 hPa 3.7 m/s 0.0 mm 11.1° 999.7 hPa 1.6 m/s 0.2 mm 11.0° 998.5 hPa 5.4 m/s 0.0 mm 11.6° 998.4 hPa 3.2 m/s
14:00 9.9° 1001.4 hPa 7.9 m/s 0.7 mm 9.8° 997.2 hPa 3.7 m/s 4.2 mm 9.8° 1002.5 hPa 8.4 m/s 1.1 mm 9.7° 1001.4 hPa 5.9 m/s 0.0 mm 9.2° 1002.0 hPa 5.9 m/s
17:00 10.3° 1002.8 hPa 7.4 m/s 0.0 mm 9.6° 999.8 hPa 8.6 m/s 16.9 mm 10.3° 1003.4 hPa 7.3 m/s 0.4 mm 11.3° 1002.3 hPa 5.9 m/s 0.0 mm 10.0° 1002.7 hPa 7.1 m/s
20:00 9.5° 1002.7 hPa 4.5 m/s 0.0 mm 9.5° 1000.5 hPa 6.7 m/s 17.8 mm 9.1° 1002.9 hPa 3.9 m/s 0.6 mm 10.6° 1002.6 hPa 4.0 m/s 0.0 mm 9.2° 1003.7 hPa 3.0 m/s
23:00 8.6° 1003.0 hPa 1.4 m/s 0.0 mm 8.6° 1000.6 hPa 4.7 m/s 18.1 mm 7.8° 1003.2 hPa 0.9 m/s 1.4 mm 8.6° 1003.2 hPa 2.2 m/s 0.0 mm 8.1° 1003.6 hPa 0.8 m/s
 04:01     22:59    Daglengte: 18:58 Morgen
02:00 7.4° 1002.9 hPa 1.5 m/s 0.0 mm 6.6° 1000.2 hPa 2.8 m/s 18.3 mm 6.7° 1002.8 hPa 1.2 m/s 0.1 mm 7.3° 1003.5 hPa 0.6 m/s 0.0 mm 7.6° 1003.3 hPa 0.8 m/s
05:00 6.9° 1002.9 hPa 1.2 m/s 0.0 mm 7.4° 1000.3 hPa 2.7 m/s 18.3 mm 6.4° 1003.2 hPa 1.3 m/s 0.0 mm 6.5° 1003.4 hPa 1.1 m/s 0.0 mm 7.6° 1003.3 hPa 1.5 m/s
08:00 8.3° 1003.4 hPa 1.7 m/s 0.0 mm 9.0° 1000.8 hPa 4.1 m/s 18.6 mm 8.1° 1003.5 hPa 1.3 m/s 0.0 mm 8.4° 1003.6 hPa 1.7 m/s 0.0 mm 8.6° 1003.9 hPa 2.1 m/s
11:00 8.9° 1004.6 hPa 3.7 m/s 3.6 mm 9.6° 1002.2 hPa 5.0 m/s 19.4 mm 8.9° 1004.9 hPa 3.4 m/s 0.3 mm 9.7° 1004.0 hPa 3.7 m/s 0.0 mm 9.2° 1005.1 hPa 3.2 m/s
14:00 9.5° 1005.9 hPa 5.5 m/s 0.0 mm 9.3° 1003.5 hPa 5.8 m/s 20.6 mm 9.6° 1006.3 hPa 5.4 m/s 0.4 mm 10.6° 1005.1 hPa 5.1 m/s 0.0 mm 7.8° 1006.9 hPa 2.5 m/s
17:00 9.1° 1007.3 hPa 5.8 m/s 0.0 mm 8.3° 1005.1 hPa 6.1 m/s 21.9 mm 9.4° 1007.8 hPa 5.6 m/s 0.0 mm 9.9° 1005.9 hPa 5.9 m/s 0.0 mm 7.2° 1008.1 hPa 2.5 m/s
20:00 8.2° 1008.1 hPa 5.8 m/s 4.3 mm 8.1° 1005.8 hPa 6.8 m/s 23.6 mm 8.1° 1008.5 hPa 4.9 m/s 0.7 mm 9.0° 1006.4 hPa 5.5 m/s 0.0 mm 7.7° 1008.7 hPa 4.0 m/s
23:00 8.1° 1008.6 hPa 6.2 m/s 7.1 mm 8.2° 1006.5 hPa 5.9 m/s 36.7 mm 7.6° 1009.1 hPa 5.3 m/s 2.6 mm 8.4° 1006.9 hPa 6.2 m/s 0.0 mm 8.0° 1010.0 hPa 3.5 m/s
 03:59     23:01    Daglengte: 19:02 Zaterdag 28 Mei
02:00 8.4° 1009.1 hPa 4.9 m/s 15.7 mm 7.8° 1007.7 hPa 6.0 m/s 52.3 mm 7.8° 1009.2 hPa 3.8 m/s 11.3 mm 8.6° 1007.2 hPa 4.8 m/s 0.0 mm 8.0° 1010.7 hPa 3.5 m/s
05:00 7.7° 1010.8 hPa 5.6 m/s 14.7 mm 7.4° 1009.3 hPa 7.3 m/s 58.3 mm 7.5° 1010.4 hPa 3.9 m/s 5.6 mm 7.9° 1012.1 hPa 4.0 m/s
08:00 7.6° 1012.1 hPa 5.5 m/s 15.9 mm 7.2° 1010.6 hPa 6.3 m/s 61.9 mm 7.5° 1011.6 hPa 4.5 m/s 6.8 mm 8.1° 1013.6 hPa 3.7 m/s
11:00 7.6° 1013.8 hPa 6.5 m/s 17.3 mm 7.0° 1011.4 hPa 7.0 m/s 69.3 mm 7.7° 1013.5 hPa 5.6 m/s 5.9 mm 8.1° 1014.3 hPa 4.8 m/s
14:00 7.4° 1014.6 hPa 6.6 m/s 18.5 mm 7.0° 1012.0 hPa 7.1 m/s 77.2 mm 7.4° 1014.3 hPa 6.6 m/s 5.6 mm 7.7° 1015.1 hPa 5.1 m/s
17:00 7.5° 1014.9 hPa 6.8 m/s 19.1 mm 6.8° 1012.4 hPa 6.8 m/s 79.5 mm 7.6° 1014.6 hPa 6.8 m/s 7.6 mm 7.4° 1015.5 hPa 5.5 m/s
20:00 7.3° 1014.7 hPa 6.0 m/s 17.6 mm 6.6° 1011.7 hPa 6.6 m/s 82.3 mm 7.2° 1014.5 hPa 5.4 m/s 1.8 mm 7.0° 1015.5 hPa 5.3 m/s
23:00 7.0° 1014.4 hPa 5.6 m/s 18.3 mm 6.3° 1010.9 hPa 6.1 m/s 84.7 mm 6.9° 1014.1 hPa 5.5 m/s 1.8 mm 7.0° 1014.8 hPa 4.8 m/s
 03:57     23:04    Daglengte: 19:07 Zondag 29 Mei
02:00 6.6° 1012.6 hPa 5.3 m/s 33.6 mm 6.4° 1009.4 hPa 6.7 m/s 86.8 mm 6.6° 1013.4 hPa 5.0 m/s 7.1 mm 6.9° 1013.6 hPa 4.4 m/s
05:00 6.5° 1011.7 hPa 4.7 m/s 35.6 mm 6.5° 1008.2 hPa 4.9 m/s 95.9 mm 6.5° 1012.6 hPa 4.7 m/s 5.5 mm 6.7° 1012.5 hPa 3.6 m/s
08:00 6.8° 1011.1 hPa 3.8 m/s 38.6 mm 6.9° 1007.9 hPa 4.0 m/s 106.3 mm 6.8° 1012.0 hPa 3.7 m/s 4.8 mm 6.5° 1011.9 hPa 1.8 m/s
11:00 6.4° 1012.2 hPa 1.5 m/s 55.9 mm 6.4° 1012.2 hPa 1.5 m/s 55.9 mm
14:00 7.3° 1012.3 hPa 2.8 m/s 56.0 mm 7.3° 1012.3 hPa 2.8 m/s 56.0 mm
17:00 10.9° 1011.8 hPa 3.2 m/s 56.0 mm 10.9° 1011.8 hPa 3.2 m/s 56.0 mm
20:00 10.8° 1011.6 hPa 4.3 m/s 56.0 mm 10.8° 1011.6 hPa 4.3 m/s 56.0 mm
23:00 8.3° 1012.5 hPa 3.2 m/s 56.0 mm 8.3° 1012.5 hPa 3.2 m/s 56.0 mm
 03:55     23:06    Daglengte: 19:11 Maandag 30 Mei
02:00 7.5° 1012.3 hPa 2.2 m/s 56.0 mm 7.5° 1012.3 hPa 2.2 m/s 56.0 mm
05:00 7.5° 1012.3 hPa 1.9 m/s 56.0 mm 7.5° 1012.3 hPa 1.9 m/s 56.0 mm
08:00 9.8° 1012.1 hPa 1.4 m/s 56.0 mm 9.8° 1012.1 hPa 1.4 m/s 56.0 mm
11:00 12.0° 1011.4 hPa 1.4 m/s 56.0 mm 12.0° 1011.4 hPa 1.4 m/s 56.0 mm
14:00 12.6° 1010.6 hPa 2.2 m/s 56.0 mm 12.6° 1010.6 hPa 2.2 m/s 56.0 mm
17:00 11.7° 1010.1 hPa 2.8 m/s 56.1 mm 11.7° 1010.1 hPa 2.8 m/s 56.1 mm
20:00 10.7° 1009.7 hPa 1.6 m/s 56.2 mm 10.7° 1009.7 hPa 1.6 m/s 56.2 mm
23:00 9.6° 1009.2 hPa 1.1 m/s 56.2 mm 9.6° 1009.3 hPa 1.1 m/s 56.2 mm
 03:53     23:09    Daglengte: 19:16 Dinsdag 31 Mei
02:00 9.3° 1009.1 hPa 0.8 m/s 56.4 mm 9.3° 1009.1 hPa 0.8 m/s 56.4 mm
05:00 9.1° 1008.8 hPa 0.8 m/s 56.7 mm 9.1° 1008.8 hPa 0.8 m/s 56.7 mm
08:00 9.3° 1009.4 hPa 1.6 m/s 57.2 mm 9.3° 1009.4 hPa 1.6 m/s 57.2 mm
11:00 9.1° 1010.3 hPa 1.8 m/s 57.9 mm 9.1° 1010.3 hPa 1.8 m/s 57.9 mm
14:00 9.3° 1011.4 hPa 2.0 m/s 58.2 mm 9.3° 1011.4 hPa 2.0 m/s 58.2 mm
17:00 9.5° 1011.9 hPa 1.9 m/s 58.4 mm 9.5° 1011.9 hPa 1.9 m/s 58.4 mm
20:00 9.6° 1012.6 hPa 1.7 m/s 58.4 mm 9.6° 1012.6 hPa 1.7 m/s 58.4 mm
23:00 9.4° 1013.3 hPa 1.6 m/s 58.5 mm 9.4° 1013.3 hPa 1.6 m/s 58.5 mm
 03:51     23:11    Daglengte: 19:20 Woensdag 01 Jun
02:00 8.7° 1013.0 hPa 1.9 m/s 58.5 mm 8.7° 1013.0 hPa 1.9 m/s 58.5 mm
05:00 8.5° 1013.2 hPa 1.3 m/s 58.5 mm 8.5° 1013.2 hPa 1.3 m/s 58.5 mm
08:00 10.7° 1013.9 hPa 0.4 m/s 58.5 mm 10.7° 1013.9 hPa 0.4 m/s 58.5 mm
11:00 11.6° 1014.6 hPa 2.3 m/s 58.5 mm 11.6° 1014.6 hPa 2.3 m/s 58.5 mm
14:00 11.5° 1016.0 hPa 2.5 m/s 58.6 mm 11.5° 1016.0 hPa 2.5 m/s 58.6 mm
17:00 11.4° 1017.4 hPa 2.3 m/s 58.6 mm 11.4° 1017.4 hPa 2.3 m/s 58.6 mm
20:00 11.2° 1018.0 hPa 1.4 m/s 58.6 mm 11.2° 1018.0 hPa 1.4 m/s 58.6 mm
23:00 10.7° 1018.9 hPa 0.3 m/s 58.6 mm 10.7° 1018.9 hPa 0.3 m/s 58.6 mm
 03:49     23:13    Daglengte: 19:24 Donderdag 02 Jun
02:00 10.3° 1019.2 hPa 0.9 m/s 58.6 mm 10.3° 1019.2 hPa 0.9 m/s 58.6 mm
05:00 10.3° 1019.4 hPa 0.9 m/s 58.6 mm 10.3° 1019.4 hPa 0.9 m/s 58.6 mm
08:00 11.7° 1019.9 hPa 1.4 m/s 58.6 mm 11.7° 1019.9 hPa 1.4 m/s 58.6 mm
14:00 13.7° 1020.4 hPa 2.8 m/s 58.6 mm 13.7° 1020.4 hPa 2.8 m/s 58.6 mm
20:00 13.0° 1020.6 hPa 3.2 m/s 58.6 mm 13.0° 1020.6 hPa 3.2 m/s 58.6 mm
 03:47     23:15    Daglengte: 19:28 Vrijdag 03 Jun
02:00 9.9° 1021.2 hPa 1.9 m/s 58.6 mm 9.9° 1021.2 hPa 1.9 m/s 58.6 mm
08:00 11.3° 1021.1 hPa 1.7 m/s 58.6 mm 11.3° 1021.1 hPa 1.7 m/s 58.6 mm
14:00 13.9° 1020.8 hPa 3.0 m/s 58.6 mm 13.9° 1020.8 hPa 3.0 m/s 58.6 mm
20:00 14.1° 1020.5 hPa 2.8 m/s 58.6 mm 14.1° 1020.5 hPa 2.8 m/s 58.6 mm
 03:45     23:17    Daglengte: 19:32 Zaterdag 04 Jun
02:00 10.8° 1021.7 hPa 1.6 m/s 58.6 mm 10.8° 1021.7 hPa 1.6 m/s 58.6 mm
08:00 14.5° 1022.6 hPa 0.7 m/s 58.6 mm 14.5° 1022.6 hPa 0.7 m/s 58.6 mm
14:00 17.4° 1022.5 hPa 1.8 m/s 58.6 mm 17.4° 1022.5 hPa 1.8 m/s 58.6 mm
20:00 15.6° 1022.2 hPa 1.0 m/s 58.6 mm 15.6° 1022.2 hPa 1.0 m/s 58.6 mm
 03:44     23:19    Daglengte: 19:35 Zondag 05 Jun
02:00 9.8° 1017.9 hPa 0.9 m/s 0.4 mm
08:00 11.1° 1017.0 hPa 0.8 m/s 0.3 mm
14:00 13.2° 1016.7 hPa 2.6 m/s 0.2 mm
20:00 11.9° 1016.6 hPa 2.2 m/s 0.4 mm
 03:42     23:21    Daglengte: 19:39 Maandag 06 Jun
02:00 10.0° 1016.9 hPa 0.9 m/s 0.4 mm
08:00 11.4° 1016.0 hPa 1.2 m/s 0.5 mm
14:00 13.0° 1015.6 hPa 2.6 m/s 0.8 mm